Orbital Elements at Epoch 2459000.5 (2020-May-31.0) TDB
Reference: JPL 23 (heliocentric ecliptic J2000)
Element | Value | Uncertainty (1-sigma) | Units |
e | .08375991789421908 | 9.4257e-08 | |
a | 3.209016526222178 | 7.1362e-08 | au |
q | 2.940229565464616 | 3.4794e-07 | au |
i | 18.46434524102107 | 7.312e-06 | deg |
node | 78.68107528280773 | 1.9368e-05 | deg |
peri | 313.426453725341 | 4.7283e-05 | deg |
M | 12.77776986648661 | 4.1198e-05 | deg |
tp | 2458925.973810122817 (2020-Mar-17.47381012) | 0.0002395 | TDB |
period | 2099.695693076603 5.75 | 7.0039e-05 1.918e-07 | d yr |
n | .1714534164103113 | 5.7191e-09 | deg/d |
Q | 3.47780348697974 | 7.7339e-08 | au |
|
| | Orbit Determination Parameters
Additional Information
|